Terminal Aerodrome Forecast
Issued by NWS

Current Version | Previous Version | Text Only | Print | Product List | Glossary On
Versions: 1 2 3 4 5 6 7 8 9 10 11 12 13 14 15 16 17 18 19 20 21 22 23 24 25 26
000 FTUS41 KBOX 040538 TAFACK TAF KACK 040538Z 0406/0506 VRB03KT 3SM BR BKN002 FM041100 05010KT 6SM BR SCT010 FM041600 05017KT P6SM SCT250 FM041700 05018KT P6SM SCT010 FM042200 05016KT P6SM FEW250 AMD NOT SKED=

USA.gov is the U.S. government's official web portal to all federal, state and local government web resources and services.